Time,TemperatureF,DewpointF,PressureIn,WindDirection,WindDirectionDegrees,WindSpeedMPH,WindSpeedGustMPH,Humidity,HourlyPrecipIn,Conditions,Clouds,dailyrainin,SolarRadiationWatts/m^2,SoftwareType,DateUTC
2013-03-03 00:01:00,51.0,40.0,-100.00,North,5,10.0,24.0,66,0.00,,,0.00,0.000000,,2013-03-03 10:01:00,
2013-03-03 00:11:00,51.0,40.0,-100.00,North,5,10.0,24.0,66,0.00,,,0.00,0.000000,,2013-03-03 10:11:00,
2013-03-03 00:21:00,51.0,40.0,-100.00,North,5,10.0,24.0,66,0.00,,,0.00,0.000000,,2013-03-03 10:21:00,
2013-03-03 00:31:00,51.0,40.0,-100.00,North,5,10.0,24.0,66,0.00,,,0.00,0.000000,,2013-03-03 10:31:00,
2013-03-03 00:52:00,51.0,33.0,-100.00,North,359,10.0,17.0,49,0.00,,,0.00,0.000000,,2013-03-03 10:52:00,
2013-03-03 01:01:00,51.0,33.0,-100.00,North,359,10.0,17.0,49,0.00,,,0.00,0.000000,,2013-03-03 11:01:00,
2013-03-03 01:11:00,51.0,33.0,-100.00,North,359,10.0,17.0,49,0.00,,,0.00,0.000000,,2013-03-03 11:11:00,
2013-03-03 01:21:00,51.0,33.0,-100.00,North,359,10.0,17.0,49,0.00,,,0.00,0.000000,,2013-03-03 11:21:00,
2013-03-03 01:31:00,51.0,33.0,-100.00,North,359,10.0,17.0,49,0.00,,,0.00,0.000000,,2013-03-03 11:31:00,
2013-03-03 01:52:00,51.0,39.0,-100.00,North,349,10.0,18.0,63,0.00,,,0.00,0.000000,,2013-03-03 11:52:00,
2013-03-03 02:01:00,51.0,39.0,-100.00,North,349,10.0,18.0,63,0.00,,,0.00,0.000000,,2013-03-03 12:01:00,
2013-03-03 02:11:00,51.0,39.0,-100.00,North,349,10.0,18.0,63,0.00,,,0.00,0.000000,,2013-03-03 12:11:00,
2013-03-03 02:21:00,51.0,39.0,-100.00,North,349,10.0,18.0,63,0.00,,,0.00,0.000000,,2013-03-03 12:21:00,
2013-03-03 02:31:00,51.0,39.0,-100.00,North,349,10.0,18.0,63,0.00,,,0.00,0.000000,,2013-03-03 12:31:00,
2013-03-03 03:01:00,48.0,33.0,-100.00,NW,314,6.0,20.0,55,0.00,,,0.00,0.000000,,2013-03-03 13:01:00,
2013-03-03 03:11:00,48.0,33.0,-100.00,NW,314,6.0,20.0,55,0.00,,,0.00,0.000000,,2013-03-03 13:11:00,
2013-03-03 03:21:00,48.0,33.0,-100.00,NW,314,6.0,20.0,55,0.00,,,0.00,0.000000,,2013-03-03 13:21:00,
2013-03-03 03:31:00,48.0,33.0,-100.00,NW,314,6.0,20.0,55,0.00,,,0.00,0.000000,,2013-03-03 13:31:00,
2013-03-03 03:52:00,50.0,25.0,-100.00,NW,321,7.0,18.0,38,0.00,,,0.00,0.000000,,2013-03-03 13:52:00,
2013-03-03 04:01:00,50.0,25.0,-100.00,NW,321,7.0,18.0,38,0.00,,,0.00,0.000000,,2013-03-03 14:01:00,
2013-03-03 04:11:00,50.0,25.0,-100.00,NW,321,7.0,18.0,38,0.00,,,0.00,0.000000,,2013-03-03 14:11:00,
2013-03-03 04:21:00,50.0,25.0,-100.00,NW,321,7.0,18.0,38,0.00,,,0.00,0.000000,,2013-03-03 14:21:00,
2013-03-03 04:31:00,50.0,25.0,-100.00,NW,321,7.0,18.0,38,0.00,,,0.00,0.000000,,2013-03-03 14:31:00,
2013-03-03 04:52:00,49.0,17.0,-100.00,NW,305,5.0,19.0,28,0.00,,,0.00,0.000000,,2013-03-03 14:52:00,
2013-03-03 05:01:00,49.0,17.0,-100.00,NW,305,5.0,19.0,28,0.00,,,0.00,0.000000,,2013-03-03 15:01:00,
2013-03-03 05:11:00,49.0,17.0,-100.00,NW,305,5.0,19.0,28,0.00,,,0.00,0.000000,,2013-03-03 15:11:00,
2013-03-03 05:22:00,49.0,17.0,-100.00,NW,305,5.0,19.0,28,0.00,,,0.00,0.000000,,2013-03-03 15:22:00,
2013-03-03 05:31:00,49.0,17.0,-100.00,NW,305,5.0,19.0,28,0.00,,,0.00,0.000000,,2013-03-03 15:31:00,
2013-03-03 05:52:00,49.0,5.0,-100.00,NW,326,6.0,14.0,16,0.00,,,0.00,0.000000,,2013-03-03 15:52:00,
2013-03-03 06:01:00,49.0,5.0,-100.00,NW,326,6.0,14.0,16,0.00,,,0.00,0.000000,,2013-03-03 16:01:00,
2013-03-03 06:12:00,49.0,5.0,-100.00,NW,326,6.0,14.0,16,0.00,,,0.00,0.000000,,2013-03-03 16:12:00,
2013-03-03 06:21:00,49.0,5.0,-100.00,NW,326,6.0,14.0,16,0.00,,,0.00,0.000000,,2013-03-03 16:21:00,
2013-03-03 06:31:00,49.0,5.0,-100.00,NW,326,6.0,14.0,16,0.00,,,0.00,0.000000,,2013-03-03 16:31:00,
2013-03-03 06:52:00,50.0,-2.0,-100.00,NW,323,7.0,13.0,11,0.00,,,0.00,0.000000,,2013-03-03 16:52:00,
2013-03-03 07:01:00,50.0,-2.0,-100.00,NW,323,7.0,13.0,11,0.00,,,0.00,0.000000,,2013-03-03 17:01:00,
2013-03-03 07:11:00,50.0,-2.0,-100.00,NW,323,7.0,13.0,11,0.00,,,0.00,0.000000,,2013-03-03 17:11:00,
2013-03-03 07:22:00,50.0,-2.0,-100.00,NW,323,7.0,13.0,11,0.00,,,0.00,0.000000,,2013-03-03 17:22:00,
2013-03-03 07:32:00,50.0,-2.0,-100.00,NW,323,7.0,13.0,11,0.00,,,0.00,0.000000,,2013-03-03 17:32:00,
2013-03-03 07:52:00,61.0,4.0,-100.00,NNW,345,7.0,14.0,10,0.00,,,0.00,91.000000,,2013-03-03 17:52:00,
2013-03-03 08:01:00,61.0,4.0,-100.00,NNW,345,7.0,14.0,10,0.00,,,0.00,91.000000,,2013-03-03 18:01:00,
2013-03-03 08:11:00,61.0,4.0,-100.00,NNW,345,7.0,14.0,10,0.00,,,0.00,91.000000,,2013-03-03 18:11:00,
2013-03-03 08:21:00,61.0,4.0,-100.00,NNW,345,7.0,14.0,10,0.00,,,0.00,91.000000,,2013-03-03 18:21:00,
2013-03-03 08:31:00,61.0,4.0,-100.00,NNW,345,7.0,14.0,10,0.00,,,0.00,91.000000,,2013-03-03 18:31:00,
2013-03-03 08:52:00,69.0,-1.0,-100.00,NNE,22,8.0,15.0,6,0.00,,,0.00,375.000000,,2013-03-03 18:52:00,
2013-03-03 09:01:00,69.0,-1.0,-100.00,NNE,22,8.0,15.0,6,0.00,,,0.00,375.000000,,2013-03-03 19:01:00,
2013-03-03 09:11:00,69.0,-1.0,-100.00,NNE,22,8.0,15.0,6,0.00,,,0.00,375.000000,,2013-03-03 19:11:00,
2013-03-03 09:21:00,69.0,-1.0,-100.00,NNE,22,8.0,15.0,6,0.00,,,0.00,375.000000,,2013-03-03 19:21:00,
2013-03-03 09:31:00,69.0,-1.0,-100.00,NNE,22,8.0,15.0,6,0.00,,,0.00,375.000000,,2013-03-03 19:31:00,
2013-03-03 10:01:00,74.0,-1.0,-100.00,NNE,27,9.0,16.0,5,0.00,,,0.00,644.000000,,2013-03-03 20:01:00,
2013-03-03 10:11:00,74.0,-1.0,-100.00,NNE,27,9.0,16.0,5,0.00,,,0.00,644.000000,,2013-03-03 20:11:00,
2013-03-03 10:21:00,74.0,-1.0,-100.00,NNE,27,9.0,16.0,5,0.00,,,0.00,644.000000,,2013-03-03 20:21:00,
2013-03-03 10:32:00,74.0,-1.0,-100.00,NNE,27,9.0,16.0,5,0.00,,,0.00,644.000000,,2013-03-03 20:32:00,
2013-03-03 10:53:00,74.0,-1.0,-100.00,NNE,26,9.0,16.0,5,0.00,,,0.00,855.000000,,2013-03-03 20:53:00,
2013-03-03 11:01:00,74.0,-1.0,-100.00,NNE,26,9.0,16.0,5,0.00,,,0.00,855.000000,,2013-03-03 21:01:00,
2013-03-03 11:11:00,74.0,-1.0,-100.00,NNE,26,9.0,16.0,5,0.00,,,0.00,855.000000,,2013-03-03 21:11:00,
2013-03-03 11:21:00,74.0,-1.0,-100.00,NNE,26,9.0,16.0,5,0.00,,,0.00,855.000000,,2013-03-03 21:21:00,
2013-03-03 11:31:00,74.0,-1.0,-100.00,NNE,26,9.0,16.0,5,0.00,,,0.00,855.000000,,2013-03-03 21:31:00,
2013-03-03 11:52:00,73.0,8.0,-100.00,NE,44,7.0,18.0,8,0.00,,,0.00,1007.000000,,2013-03-03 21:52:00,
2013-03-03 12:01:00,73.0,8.0,-100.00,NE,44,7.0,18.0,8,0.00,,,0.00,1007.000000,,2013-03-03 22:01:00,
2013-03-03 12:11:00,73.0,8.0,-100.00,NE,44,7.0,18.0,8,0.00,,,0.00,1007.000000,,2013-03-03 22:11:00,
2013-03-03 12:21:00,73.0,8.0,-100.00,NE,44,7.0,18.0,8,0.00,,,0.00,1007.000000,,2013-03-03 22:21:00,
2013-03-03 12:31:00,73.0,8.0,-100.00,NE,44,7.0,18.0,8,0.00,,,0.00,1007.000000,,2013-03-03 22:31:00,
2013-03-03 13:01:00,74.0,6.0,-100.00,NE,48,8.0,18.0,7,0.00,,,0.00,1085.000000,,2013-03-03 23:01:00,
2013-03-03 13:11:00,74.0,6.0,-100.00,NE,48,8.0,18.0,7,0.00,,,0.00,1085.000000,,2013-03-03 23:11:00,
2013-03-03 13:21:00,74.0,6.0,-100.00,NE,48,8.0,18.0,7,0.00,,,0.00,1085.000000,,2013-03-03 23:21:00,
2013-03-03 13:31:00,74.0,6.0,-100.00,NE,48,8.0,18.0,7,0.00,,,0.00,1085.000000,,2013-03-03 23:31:00,
2013-03-03 13:52:00,75.0,3.0,-100.00,ENE,73,6.0,14.0,6,0.00,,,0.00,1087.000000,,2013-03-03 23:52:00,
2013-03-03 14:01:00,75.0,3.0,-100.00,ENE,73,6.0,14.0,6,0.00,,,0.00,1087.000000,,2013-03-04 00:01:00,
2013-03-03 14:11:00,75.0,3.0,-100.00,ENE,73,6.0,14.0,6,0.00,,,0.00,1087.000000,,2013-03-04 00:11:00,
2013-03-03 14:21:00,75.0,3.0,-100.00,ENE,73,6.0,14.0,6,0.00,,,0.00,1087.000000,,2013-03-04 00:21:00,
2013-03-03 14:32:00,75.0,3.0,-100.00,ENE,73,6.0,14.0,6,0.00,,,0.00,1087.000000,,2013-03-04 00:32:00,
2013-03-03 15:01:00,74.0,29.0,-100.00,ENE,65,6.0,15.0,19,0.00,,,0.00,1009.000000,,2013-03-04 01:01:00,
2013-03-03 15:11:00,74.0,29.0,-100.00,ENE,65,6.0,15.0,19,0.00,,,0.00,1009.000000,,2013-03-04 01:11:00,
2013-03-03 15:21:00,74.0,29.0,-100.00,ENE,65,6.0,15.0,19,0.00,,,0.00,1009.000000,,2013-03-04 01:21:00,
2013-03-03 15:31:00,74.0,29.0,-100.00,ENE,65,6.0,15.0,19,0.00,,,0.00,1009.000000,,2013-03-04 01:31:00,
2013-03-03 15:52:00,71.0,33.0,-100.00,SSE,148,4.0,13.0,25,0.00,,,0.00,852.000000,,2013-03-04 01:52:00,
2013-03-03 16:01:00,71.0,33.0,-100.00,SSE,148,4.0,13.0,25,0.00,,,0.00,852.000000,,2013-03-04 02:01:00,
2013-03-03 16:11:00,71.0,33.0,-100.00,SSE,148,4.0,13.0,25,0.00,,,0.00,852.000000,,2013-03-04 02:11:00,
2013-03-03 16:22:00,71.0,33.0,-100.00,SSE,148,4.0,13.0,25,0.00,,,0.00,852.000000,,2013-03-04 02:22:00,
2013-03-03 16:31:00,71.0,33.0,-100.00,SSE,148,4.0,13.0,25,0.00,,,0.00,852.000000,,2013-03-04 02:31:00,
2013-03-03 16:52:00,73.0,24.0,-100.00,NE,40,3.0,11.0,16,0.00,,,0.00,641.000000,,2013-03-04 02:52:00,
2013-03-03 17:01:00,73.0,24.0,-100.00,NE,40,3.0,11.0,16,0.00,,,0.00,641.000000,,2013-03-04 03:01:00,
2013-03-03 17:11:00,73.0,24.0,-100.00,NE,40,3.0,11.0,16,0.00,,,0.00,641.000000,,2013-03-04 03:11:00,
2013-03-03 17:21:00,73.0,24.0,-100.00,NE,40,3.0,11.0,16,0.00,,,0.00,641.000000,,2013-03-04 03:21:00,
2013-03-03 17:31:00,73.0,24.0,-100.00,NE,40,3.0,11.0,16,0.00,,,0.00,641.000000,,2013-03-04 03:31:00,
2013-03-03 17:52:00,70.0,17.0,-100.00,NE,40,2.0,9.0,13,0.00,,,0.00,356.000000,,2013-03-04 03:52:00,
2013-03-03 18:01:00,70.0,17.0,-100.00,NE,40,2.0,9.0,13,0.00,,,0.00,356.000000,,2013-03-04 04:01:00,
2013-03-03 18:11:00,70.0,17.0,-100.00,NE,40,2.0,9.0,13,0.00,,,0.00,356.000000,,2013-03-04 04:11:00,
2013-03-03 18:22:00,70.0,17.0,-100.00,NE,40,2.0,9.0,13,0.00,,,0.00,356.000000,,2013-03-04 04:22:00,
2013-03-03 18:31:00,70.0,17.0,-100.00,NE,40,2.0,9.0,13,0.00,,,0.00,356.000000,,2013-03-04 04:31:00,
2013-03-03 18:52:00,55.0,16.0,-100.00,NNW,334,2.0,9.0,21,0.00,,,0.00,57.000000,,2013-03-04 04:52:00,
2013-03-03 19:01:00,55.0,16.0,-100.00,NNW,334,2.0,9.0,21,0.00,,,0.00,57.000000,,2013-03-04 05:01:00,
2013-03-03 19:11:00,55.0,16.0,-100.00,NNW,334,2.0,9.0,21,0.00,,,0.00,57.000000,,2013-03-04 05:11:00,
2013-03-03 19:22:00,55.0,16.0,-100.00,NNW,334,2.0,9.0,21,0.00,,,0.00,57.000000,,2013-03-04 05:22:00,
2013-03-03 19:31:00,55.0,16.0,-100.00,NNW,334,2.0,9.0,21,0.00,,,0.00,57.000000,,2013-03-04 05:31:00,
2013-03-03 20:01:00,46.0,16.0,-100.00,NW,318,4.0,4.0,30,0.00,,,0.00,0.000000,,2013-03-04 06:01:00,
2013-03-03 20:11:00,46.0,16.0,-100.00,NW,318,4.0,4.0,30,0.00,,,0.00,0.000000,,2013-03-04 06:11:00,
2013-03-03 20:21:00,46.0,16.0,-100.00,NW,318,4.0,4.0,30,0.00,,,0.00,0.000000,,2013-03-04 06:21:00,
2013-03-03 20:31:00,46.0,16.0,-100.00,NW,318,4.0,4.0,30,0.00,,,0.00,0.000000,,2013-03-04 06:31:00,
2013-03-03 20:52:00,47.0,10.0,-100.00,NW,326,4.0,6.0,22,0.00,,,0.00,0.000000,,2013-03-04 06:52:00,
2013-03-03 21:01:00,47.0,10.0,-100.00,NW,326,4.0,6.0,22,0.00,,,0.00,0.000000,,2013-03-04 07:01:00,
2013-03-03 21:11:00,47.0,10.0,-100.00,NW,326,4.0,6.0,22,0.00,,,0.00,0.000000,,2013-03-04 07:11:00,
2013-03-03 21:21:00,47.0,10.0,-100.00,NW,326,4.0,6.0,22,0.00,,,0.00,0.000000,,2013-03-04 07:21:00,
2013-03-03 21:31:00,47.0,10.0,-100.00,NW,326,4.0,6.0,22,0.00,,,0.00,0.000000,,2013-03-04 07:31:00,
2013-03-03 21:52:00,43.0,7.0,-100.00,NW,315,6.0,8.0,22,0.00,,,0.00,0.000000,,2013-03-04 07:52:00,
2013-03-03 22:01:00,43.0,7.0,-100.00,NW,315,6.0,8.0,22,0.00,,,0.00,0.000000,,2013-03-04 08:01:00,
2013-03-03 22:11:00,43.0,7.0,-100.00,NW,315,6.0,8.0,22,0.00,,,0.00,0.000000,,2013-03-04 08:11:00,
2013-03-03 22:21:00,43.0,7.0,-100.00,NW,315,6.0,8.0,22,0.00,,,0.00,0.000000,,2013-03-04 08:21:00,
2013-03-03 22:31:00,43.0,7.0,-100.00,NW,315,6.0,8.0,22,0.00,,,0.00,0.000000,,2013-03-04 08:31:00,
2013-03-03 22:52:00,41.0,9.0,-100.00,NW,314,6.0,8.0,26,0.00,,,0.00,0.000000,,2013-03-04 08:52:00,
2013-03-03 23:01:00,41.0,9.0,-100.00,NW,314,6.0,8.0,26,0.00,,,0.00,0.000000,,2013-03-04 09:01:00,
2013-03-03 23:11:00,41.0,9.0,-100.00,NW,314,6.0,8.0,26,0.00,,,0.00,0.000000,,2013-03-04 09:11:00,
2013-03-03 23:21:00,41.0,9.0,-100.00,NW,314,6.0,8.0,26,0.00,,,0.00,0.000000,,2013-03-04 09:21:00,
2013-03-03 23:31:00,41.0,9.0,-100.00,NW,314,6.0,8.0,26,0.00,,,0.00,0.000000,,2013-03-04 09:31:00,
2013-03-03 23:52:00,41.0,7.0,-100.00,NW,309,6.0,8.0,24,0.00,,,0.00,0.000000,,2013-03-04 09:52:00,